[[{"header":{"parameterUnit":"m.s-1","parameterCategory":1,"la1":30.2991,"la2":30.254,"lo1":-89.0895,"lo2":-89.0444,"dy":0.0017,"dx":0.0017,"nx":28,"ny":28,"refTime":"2023-09-11T21:00:00:Z","depth":0,"parameterNumber":2,"parameterNumberName":"U-component_of_WINDS"},"data":[0,0,0,0,0,0,0,0,0,0,0,0,0,0,0,0,0,0,0,0,0,0,0,0,0,0,0,0,0,0,0,0,0,0,0,0,0,0,0,0,0,0,0,0,0,0,0,0,0,0,0,0,0,0,0,0,0,0,1.4597,1.4597,0,1.4631,1.4631,1.4631,1.4605,1.4604,1.4602,1.4601,1.4635,1.4637,1.4639,0,0,0,0,0,0,0,0,0,0,0,0,0,1.4506,1.4508,1.4596,1.4597,1.4597,1.4631,1.4631,1.4632,1.4605,1.4604,1.4602,1.4601,1.4635,1.4637,1.4639,0,0,0,0,0,0,0,0,0,0,0,0,0,1.4544,1.4509,1.4596,1.4588,1.4588,1.4631,1.4631,1.4632,1.4605,1.4604,1.4602,1.46,1.4634,1.4637,1.464,1.4692,0,0,1.4649,1.465,0,0,0,0,0,0,0,0,1.4541,1.4547,1.4589,1.4589,1.4588,1.4612,1.4612,1.4652,1.4606,1.4599,1.4601,1.4599,1.4629,1.4632,1.4642,1.4694,1.4695,1.4649,1.4651,1.4652,1.4653,0,0,0,0,0,0,0,1.4539,1.4545,1.461,1.459,1.4589,1.4582,1.4585,1.4619,1.4623,1.4599,1.4597,1.4602,1.4628,1.4639,1.4643,1.4696,1.4649,1.4652,1.4653,1.4655,1.4791,1.4793,0,0,0,0,0,0,1.4537,1.4543,1.4609,1.4611,1.456,1.4585,1.4589,1.4606,1.4622,1.4623,1.4603,1.46,1.4635,1.4639,1.4644,1.4705,1.4652,1.4655,1.4657,1.4789,1.4792,1.4794,0,0,0,0,0,0,1.4536,1.4543,1.4607,1.4577,1.4584,1.4589,1.4608,1.4608,1.4619,1.4626,1.4626,1.4614,1.4634,1.464,1.468,1.4706,1.4656,1.4659,1.4787,1.479,1.4793,1.483,0,0,0,0,0,0,1.4533,1.4543,1.4563,1.4577,1.4586,1.4644,1.461,1.4609,1.4624,1.4621,1.4636,1.4637,1.4633,1.4676,1.4683,1.4709,1.4661,1.4785,1.4788,1.4792,1.4826,1.4833,1.484,0,0,0,0,0,1.453,1.4572,1.4565,1.4573,1.4612,1.4645,1.465,1.4646,1.4626,1.4646,1.4651,1.4636,1.4703,1.468,1.4688,1.4716,1.4783,1.4787,1.4791,1.4823,1.4832,1.484,0,0,0,0,0,0,1.4561,1.4574,1.4565,1.4614,1.4629,1.4641,1.4666,1.4656,1.4676,1.4672,1.4665,1.4669,1.4711,1.4718,1.4693,1.4767,1.474,1.4746,1.4761,1.477,1.4776,1.4773,1.4664,0,0,0,0,0,1.4574,1.46,1.461,1.4652,1.466,1.4662,1.4676,1.4672,1.4687,1.4693,1.47,1.4715,1.4739,1.4755,1.4777,1.4827,1.483,1.485,1.4857,1.4862,1.4867,1.4893,1.4902,1.4807,1.4807,1.4807,0,0,1.46,1.461,1.4627,1.4659,1.4669,1.4696,1.4667,1.4697,1.4717,1.4697,1.4735,1.4742,1.4757,1.4803,1.4823,1.4809,1.4894,1.4868,1.4872,1.4874,1.4898,1.4907,1.4915,1.481,1.481,1.4809,0,0,1.4661,1.4672,1.4707,1.4719,1.4736,1.4737,1.4746,1.4759,1.4762,1.4801,1.4786,1.481,1.4852,1.4863,1.4875,1.494,1.4927,1.4948,1.4982,1.5008,1.5015,1.5022,1.5044,1.5052,1.4953,1.4953,1.4953,0,1.4691,1.4731,1.4727,1.4758,1.4771,1.4755,1.479,1.4802,1.4825,1.4835,1.4819,1.4871,1.4881,1.4928,1.4944,1.4954,1.4963,1.4945,1.5015,1.5021,1.5027,1.5048,1.5057,1.4955,1.4955,1.4955,1.4954,0,1.4767,1.4795,1.4822,1.4845,1.4862,1.4895,1.4895,1.4912,1.4906,1.4909,1.4948,1.4959,1.4983,1.4994,1.4988,1.504,1.5031,1.5016,1.4988,1.5039,1.5058,1.5066,1.4958,1.4958,1.4957,1.4956,0,0,1.4848,1.4868,1.4878,1.4887,1.4905,1.4927,1.4959,1.4983,1.4997,1.5014,1.504,1.5076,1.5061,1.5075,1.507,1.5093,1.5142,1.5074,1.5074,1.5085,1.5199,1.5209,1.5219,1.5134,1.5136,1.5137,1.5197,0,1.4908,1.4964,1.4961,1.5013,1.5039,1.5024,1.5052,1.5065,1.5068,1.509,1.5094,1.5119,1.5098,1.5106,1.5128,1.5132,1.5165,1.5127,1.5157,1.5159,1.5153,1.5229,1.5241,1.5297,1.5205,1.5206,1.5207,0,1.4986,1.5006,1.5061,1.5074,1.5085,1.511,1.5131,1.5153,1.5167,1.5168,1.5183,1.5175,1.5206,1.5179,1.5222,1.5196,1.5209,1.5213,1.5215,1.5216,1.5185,1.5232,1.5315,1.5323,1.5219,1.5218,1.5217,0,1.5038,1.5078,1.5116,1.5125,1.5142,1.516,1.5168,1.5181,1.5195,1.5214,1.5223,1.5245,1.5257,1.5274,1.5272,1.5252,1.5315,1.5288,1.5316,1.5316,1.5329,1.5328,1.5414,1.5339,1.5339,1.5339,1.5339,0,1.5105,1.5139,1.5139,1.5163,1.52,1.5196,1.5233,1.5238,1.525,1.5274,1.5262,1.5284,1.5281,1.5303,1.5302,1.5337,1.5343,1.5344,1.5342,1.5344,1.5344,1.5351,1.5346,1.5341,1.534,1.534,1.534,0,1.5169,1.517,1.521,1.5223,1.5227,1.5254,1.5264,1.5286,1.5288,1.5318,1.5325,1.5329,1.5354,1.5354,1.5383,1.5382,1.5425,1.542,1.542,1.5418,1.5446,1.5443,1.5539,1.555,1.5469,1.547,1.5471,0,1.5211,1.5237,1.5252,1.5267,1.5276,1.5301,1.5315,1.5312,1.5328,1.5346,1.5366,1.539,1.5409,1.545,1.5455,1.5477,1.5472,1.5504,1.5475,1.5476,1.5471,1.5469,1.5471,1.5509,1.551,1.5511,1.5512,0,1.5285,1.5285,1.5306,1.5328,1.5346,1.5363,1.5379,1.5392,1.5391,1.5409,1.5435,1.545,1.5479,1.5503,1.5525,1.5532,1.5521,1.5521,1.5528,1.5529,1.5528,1.5528,1.5434,1.5518,1.5518,1.5517,1.5517,1.5517,1.5338,1.536,1.5374,1.5398,1.541,1.5425,1.5446,1.5451,1.5473,1.5496,1.5494,1.5522,1.5536,1.5563,1.5573,1.5595,1.5583,1.5595,1.5597,1.56,1.5602,1.5525,1.5599,1.5599,1.5598,1.5598,1.5598,0,1.541,1.5419,1.5441,1.5464,1.5483,1.5472,1.5489,1.5505,1.5531,1.5545,1.5564,1.5594,1.5617,1.5624,1.5646,1.5663,1.5658,1.5668,1.5667,1.5668,1.5611,1.5602,1.5672,1.5672,1.5671,1.5671,1.5671,1.5671,1.545,1.5486,1.5487,1.5529,1.5537,1.5565,1.5575,1.5589,1.56,1.5633,1.5653,1.5657,1.5668,1.5692,1.5712,1.5714,1.5722,1.5734,1.5733,1.568,1.5672,1.5665,1.5656,1.5736,1.5736,1.5788,1.5788,1.5789]},{"header":{"parameterUnit":"m.s-1","parameterCategory":1,"la1":30.2991,"la2":30.254,"lo1":-89.0895,"lo2":-89.0444,"dy":0.0017,"dx":0.0017,"nx":28,"ny":28,"refTime":"2023-09-11T21:00:00:Z","depth":0,"parameterNumber":3,"parameterNumberName":"V-component_of_WINDS"},"data":[0,0,0,0,0,0,0,0,0,0,0,0,0,0,0,0,0,0,0,0,0,0,0,0,0,0,0,0,0,0,0,0,0,0,0,0,0,0,0,0,0,0,0,0,0,0,0,0,0,0,0,0,0,0,0,0,0,0,2.7994,2.7993,0,2.7937,2.7936,2.7935,2.7872,2.7871,2.787,2.787,2.781,2.781,2.7809,0,0,0,0,0,0,0,0,0,0,0,0,0,2.8047,2.8047,2.7994,2.7993,2.7992,2.7937,2.7936,2.7935,2.7872,2.7871,2.787,2.7869,2.781,2.781,2.7809,0,0,0,0,0,0,0,0,0,0,0,0,0,2.8011,2.8046,2.7994,2.7954,2.795,2.7937,2.7936,2.7935,2.7873,2.7871,2.787,2.7869,2.7811,2.781,2.7809,2.7829,0,0,2.7805,2.7805,0,0,0,0,0,0,0,0,2.8013,2.8009,2.7961,2.7957,2.7953,2.791,2.7933,2.7899,2.7873,2.7902,2.787,2.7868,2.7845,2.7841,2.7833,2.7826,2.7824,2.7805,2.7804,2.7804,2.7804,0,0,0,0,0,0,0,2.8015,2.8011,2.7971,2.796,2.7955,2.7939,2.7932,2.7926,2.7882,2.79,2.7895,2.7889,2.7842,2.7834,2.7831,2.7823,2.7805,2.7804,2.7804,2.7803,2.7827,2.7829,0,0,0,0,0,0,2.8024,2.8013,2.7973,2.7969,2.798,2.7939,2.7932,2.7925,2.7882,2.7874,2.789,2.7886,2.7837,2.7832,2.7829,2.7847,2.7804,2.7803,2.7802,2.7826,2.7828,2.7829,0,0,0,0,0,0,2.8025,2.8021,2.7975,2.799,2.7983,2.794,2.7933,2.7925,2.7917,2.7875,2.7866,2.789,2.7835,2.783,2.7829,2.7845,2.7802,2.7801,2.7825,2.7827,2.7828,2.7887,0,0,0,0,0,0,2.8027,2.8022,2.803,2.7991,2.7982,2.7977,2.7934,2.7925,2.7915,2.7909,2.7872,2.7865,2.7834,2.7831,2.7828,2.7842,2.7801,2.7823,2.7826,2.7828,2.7883,2.7891,2.7897,0,0,0,0,0,2.8029,2.8049,2.803,2.8026,2.7991,2.7978,2.7973,2.7937,2.7917,2.7923,2.7896,2.7866,2.7844,2.7831,2.7827,2.7842,2.7822,2.7825,2.7828,2.788,2.7889,2.7897,0,0,0,0,0,0,2.8091,2.8043,2.8022,2.803,2.8009,2.7968,2.7975,2.7948,2.7933,2.7928,2.7884,2.7876,2.7879,2.7861,2.7847,2.7858,2.7828,2.7831,2.787,2.7878,2.7885,2.7888,2.78,0,0,0,0,0,2.8105,2.8099,2.8058,2.8068,2.8059,2.8019,2.8012,2.7986,2.7962,2.7953,2.7926,2.7903,2.7891,2.7884,2.787,2.7881,2.7871,2.7889,2.7896,2.7901,2.7903,2.7905,2.7912,2.7839,2.7839,2.7839,0,0,2.8135,2.8108,2.8107,2.808,2.806,2.8054,2.8012,2.8008,2.8002,2.7952,2.7948,2.7928,2.79,2.7904,2.7905,2.7889,2.7921,2.7905,2.791,2.7909,2.7909,2.7916,2.7922,2.7841,2.784,2.784,0,0,2.8185,2.8165,2.8171,2.8152,2.8123,2.8096,2.8098,2.8061,2.8045,2.8041,2.8003,2.7996,2.7976,2.7957,2.7945,2.7987,2.7958,2.7984,2.8018,2.8021,2.8026,2.8031,2.8044,2.8049,2.7986,2.7986,2.7986,0,2.8225,2.8215,2.8177,2.8174,2.8163,2.8118,2.8122,2.8106,2.8074,2.8066,2.8049,2.8022,2.8,2.7998,2.8008,2.8001,2.8,2.7987,2.8029,2.8033,2.8037,2.8048,2.8054,2.799,2.7989,2.7989,2.7989,0,2.8265,2.8258,2.8266,2.8236,2.8225,2.8226,2.8188,2.8182,2.8157,2.8132,2.8127,2.8099,2.8078,2.8076,2.8052,2.807,2.8061,2.8037,2.8006,2.8048,2.8058,2.8062,2.7994,2.7993,2.7992,2.7991,0,0,2.8351,2.83,2.8303,2.8288,2.8253,2.8246,2.8245,2.8224,2.8219,2.8198,2.8195,2.8179,2.8156,2.8142,2.8115,2.8117,2.8149,2.8093,2.8091,2.8102,2.8165,2.8181,2.8187,2.8131,2.8131,2.8132,2.8166,0,2.8393,2.8388,2.8353,2.8357,2.8349,2.8306,2.8305,2.8282,2.8259,2.8248,2.8222,2.821,2.8182,2.8173,2.8174,2.8146,2.8161,2.8143,2.8125,2.8125,2.8131,2.8193,2.8211,2.8244,2.817,2.8171,2.8171,0,2.8441,2.8423,2.8427,2.839,2.8385,2.8384,2.8362,2.8353,2.8326,2.8308,2.8293,2.8262,2.8257,2.8229,2.822,2.8208,2.8199,2.8184,2.8184,2.8179,2.8149,2.8187,2.8254,2.8259,2.8178,2.8177,2.8177,0,2.8501,2.8478,2.8476,2.8465,2.8423,2.8423,2.8405,2.8377,2.8366,2.8347,2.8339,2.8319,2.8308,2.8293,2.8257,2.8241,2.8251,2.8221,2.8234,2.8235,2.8237,2.8237,2.8301,2.8235,2.8235,2.8235,2.8235,0,2.855,2.8553,2.8502,2.8501,2.8503,2.8463,2.8466,2.8444,2.8419,2.8412,2.8374,2.8368,2.8323,2.8311,2.8283,2.8278,2.8274,2.8258,2.8251,2.8261,2.8262,2.8252,2.8248,2.8236,2.8236,2.8236,2.8235,0,2.8616,2.8583,2.8578,2.8538,2.8528,2.8531,2.8496,2.8492,2.8467,2.8458,2.8454,2.8413,2.8397,2.8361,2.8336,2.8317,2.8318,2.8305,2.8327,2.8322,2.8336,2.8335,2.8395,2.8399,2.8333,2.8334,2.8334,0,2.8649,2.865,2.861,2.8603,2.8587,2.8576,2.8564,2.8526,2.8515,2.8484,2.8484,2.8465,2.8448,2.8424,2.8392,2.8372,2.8357,2.8379,2.8353,2.8363,2.8354,2.8354,2.8352,2.8384,2.8385,2.8386,2.8387,0,2.8709,2.8692,2.8678,2.8658,2.8645,2.8627,2.8607,2.8603,2.8559,2.8549,2.8532,2.8519,2.8493,2.8474,2.8449,2.8429,2.84,2.8395,2.8397,2.8406,2.8417,2.8409,2.834,2.8394,2.8393,2.8392,2.8392,2.8392,2.8758,2.8756,2.8728,2.8712,2.8693,2.8675,2.8669,2.8643,2.8629,2.8604,2.8582,2.8567,2.8538,2.8501,2.8484,2.847,2.8456,2.8459,2.8459,2.846,2.8463,2.8421,2.8466,2.8466,2.8466,2.8465,2.8465,0,2.8814,2.8794,2.878,2.8753,2.8741,2.8716,2.8692,2.8683,2.867,2.8647,2.863,2.861,2.8591,2.8557,2.8535,2.8531,2.8517,2.8526,2.8525,2.852,2.8479,2.8479,2.8538,2.8538,2.8538,2.8538,2.8538,2.8538,2.8842,2.8837,2.8817,2.8802,2.8781,2.8766,2.8755,2.8737,2.8717,2.8697,2.8681,2.866,2.8631,2.8606,2.8587,2.8577,2.857,2.8583,2.8569,2.8531,2.8524,2.8517,2.8516,2.8583,2.8583,2.8611,2.8612,2.8612]}]]